Sawtelle Peak

Sawtelle summit stationLocated on Sawtelle Peak in the Centennials. Use the Sawtelle SNOdar or the nearest SNOTEL station for snow depth data: White Elephant. The data on this page is also available to view at dataGarrison.com.

 

Elevation
9885ft
Jump to table bottom
Date Time Temperature
deg F
RH, % Wind Speed Wind Gust Wind Direction Pressure Light
04/16/24 24:00 21.1 96 3 22 NW - 305 700.080 0
04/16/24 23:00 23.7 97 6 25 NW - 310 700.040 0
04/16/24 22:00 24.0 97 21 31 W - 277 700.360 0
04/16/24 21:00 23.0 97 33 50 W - 260 700.140 0
04/16/24 20:00 22.6 96 46 61 W - 260 698.920 57
04/16/24 19:00 23.0 96 48 65 W - 260 698.680 38,656
04/16/24 18:00 23.9 91 43 59 W - 258 699.040 120,269
04/16/24 17:00 24.7 95 40 55 W - 258 699.620 183,830
04/16/24 16:00 25.3 97 33 46 W - 257 700.000 219,425
04/16/24 15:00 25.5 97 31 42 W - 260 700.980 173,661
04/16/24 14:00 25.7 97 23 37 W - 263 701.900 512,317
04/16/24 13:00 25.2 97 21 36 W - 270 702.360 292,648
04/16/24 12:00 24.5 96 23 39 W - 279 702.500 522,487
04/16/24 11:00 24.5 94 13 24 W - 282 702.900 487,909
04/16/24 10:00 25.7 88 7 34 NW - 316 703.040 408,584
04/16/24 9:00 28.2 69 7 47 NW - 309 702.840 1,059,455
04/16/24 8:00 25.5 84 8 31 W - 286 703.000 839,786
04/16/24 7:00 26.4 86 7 17 W - 264 703.080 526,555
04/16/24 6:00 21.4 94 6 26 NW - 302 702.680 9,894
04/16/24 5:00 21.2 95 7 21 NW - 309 702.460 0
04/16/24 4:00 21.5 94 12 21 NW - 295 702.160 0
04/16/24 3:00 22.4 94 11 28 NW - 305 701.880 0
04/16/24 2:00 23.8 94 9 20 NW - 300 701.560 0
04/16/24 1:00 24.4 94 8 22 NW - 330 701.700 0
04/15/24 24:00 24.8 94 8 24 NW - 326 702.040 0
04/15/24 23:00 27.2 95 6 26 NW - 323 701.960 0
04/15/24 22:00 28.7 95 6 24 NW - 321 702.040 0
04/15/24 21:00 29.3 96 6 21 NW - 337 701.840 0
04/15/24 20:00 29.1 97 6 34 NW - 337 701.400 14
04/15/24 19:00 30.0 96 6 23 NW - 333 701.040 31,155
04/15/24 18:00 31.9 97 7 24 NW - 337 700.840 93,319
04/15/24 17:00 32.9 95 9 34 NW - 330 700.740 496,045
04/15/24 16:00 32.4 95 10 28 NW - 324 700.320 831,650
04/15/24 15:00 30.8 96 9 23 NW - 313 699.840 304,852
04/15/24 14:00 31.9 95 12 23 NW - 303 699.500 831,650
04/15/24 13:00 32.0 95 10 19 NW - 295 699.300 652,661
04/15/24 12:00 32.4 95 7 36 NW - 317 699.420 587,574
04/15/24 11:00 32.1 96 10 20 NW - 316 699.340 974,028
04/15/24 10:00 31.7 96 9 17 NW - 312 698.900 1,100,134
04/15/24 9:00 29.3 96 7 16 NW - 313 698.460 900,805
04/15/24 8:00 29.4 96 5 21 NW - 329 698.760 913,009
04/15/24 7:00 28.3 97 7 27 NW - 317 698.980 228,578
04/15/24 6:00 27.5 97 10 37 NW - 319 698.940 5,683
04/15/24 5:00 27.0 97 10 33 NW - 327 698.880 0
04/15/24 4:00 27.3 96 15 45 NW - 334 699.240 0
04/15/24 3:00 32.0 96 8 57 N - 351 699.820 0
04/15/24 2:00 29.0 81 6 43 E - 112 700.340 0
04/15/24 1:00 31.0 72 7 63 N - 17 700.700 0
04/14/24 24:00 32.5 67 9 54 SW - 222 701.320 0
04/14/24 23:00 34.8 52 12 22 W - 272 701.340 0